Regional Weather Roundup
Issued by NWS

Home | Current Version | Previous Version | Graphics & Text | Print | Product List | Glossary On
Versions: 1 2 3 4 5 6 7 8 9 10 11 12 13 14 15 16 17 18 19 20 21 22 23 24 25 26 27 28 29 30 31 32 33 34 35 36 37 38 39 40 41 42 43 44 45 46 47 48 49 50
000
ASUS43 KMKX 061021
RWRWI

WISCONSIN REGIONAL WEATHER ROUNDUP
NATIONAL WEATHER SERVICE MILWAUKEE/SULLIVAN WI
500 AM CDT MON JUL 06 2015

NOTE: "FAIR" INDICATES FEW OR NO CLOUDS BELOW 12,000 FEET WITH NO
SIGNIFICANT WEATHER AND/OR OBSTRUCTIONS TO VISIBILITY.

WIZ001-002-006>008-014>016-023>028-061100-
NORTHWEST WISCONSIN

CITY           SKY/WX    TMP DP  RH WIND       PRES   REMARKS
SUPERIOR ARPT  CLOUDY    66  65  99 CALM      29.82R
ASHLAND        CLOUDY    67  66  97 SW3       29.81S
HAYWARD        LGT RAIN  67  65  93 S3        29.84S
SIREN          RAIN      67  66  95 SE7       29.81F
CUMBERLAND     RAIN      64  64 100 SE8       29.85F
RICE LAKE      CLOUDY    67  66  95 E3        29.86F
CHETEK         RAIN      68  68 100 NE3       29.85F
LADYSMITH      RAIN      68  66  94 SE3       29.90R
EAU CLAIRE     LGT RAIN  69  67  93 E10       29.82F FOG
MENOMONIE      TSTM      70  69  98 NE21G26   29.76F VSB 1/4
NEW RICHMOND   HVY RAIN  67  66  98 E7        29.83S
OSCEOLA        HVY RAIN  68  68 100 SE10      29.84F
$$

WIZ003>005-009-010-017-018-061100-
NORTH CENTRAL WISCONSIN

CITY           SKY/WX    TMP DP  RH WIND       PRES   REMARKS
MANITOWISH WTR RAIN      67  66  97 S6        29.87R
ARBOR VITAE    CLOUDY    69  66  88 SW10G17   29.89R
WOODRUFF       CLOUDY    69  66  88 SW10G17   29.89R
RHINELANDER    CLOUDY    69  64  84 S6        29.92R
EAGLE RIVER    CLOUDY    68  63  83 SW9       29.89S
LAND O LAKES   CLOUDY    69  64  82 S7        29.88F
PHILLIPS       CLOUDY    67  66  97 S6        29.88F FOG
TOMAHAWK       CLOUDY    67  63  88 CALM      29.91S
MEDFORD        CLOUDY    66  64  94 SE3       29.90S FOG
MERRILL        CLOUDY    69  65  89 S3        29.92S
$$

WIZ029-030-035-036-043>047-061100-
CENTRAL WISCONSIN

CITY           SKY/WX    TMP DP  RH WIND       PRES   REMARKS
WAUSAU         CLOUDY    68  64  87 SE5       29.90S
MOSINEE        CLOUDY    64  64 100 S6        29.92S FOG
MARSHFIELD     CLOUDY    68  62  81 S7        29.88F HAZE
STEVENS POINT  CLOUDY    66  63  89 S7        29.92R
WAUPACA        CLOUDY    67  66  95 SE3       29.93R
WAUTOMA        CLOUDY    67  66  96 CALM      29.93R
WISC RAPIDS    CLOUDY    68  63  84 S6        29.91S
CAMP DOUGLAS   CLOUDY    71  71 100 S7        29.87F
$$

WIZ011>013-019>022-031-037>040-048>050-061100-
NORTHEAST WISCONSIN

CITY           SKY/WX    TMP DP  RH WIND       PRES   REMARKS
ANTIGO         CLOUDY    62  62  99 CALM      29.94R FOG
SHAWANO        CLOUDY    68  64  85 CALM      29.92R
OCONTO         MOCLDY    67  67  99 S3        29.91R
STURGEON BAY   MOCLDY    63  57  82 S7        29.95R
GREEN BAY      MOCLDY    67  62  84 S6        29.92R HAZE
MANITOWOC      PTCLDY    62  60  93 MISG      29.94S FOG
APPLETON       MOCLDY    66  61  82 S9        29.94R
CLINTONVILLE   MOCLDY    63  61  94 S5        29.91R
OSHKOSH        MOCLDY    67  62  84 SW9       29.92S
$$

WIZ032>034-041-042-053>061-061100-
SOUTHWEST WISCONSIN

CITY           SKY/WX    TMP DP  RH WIND       PRES   REMARKS
LA CROSSE      CLOUDY    74  67  78 S14       29.83F
SPARTA         CLOUDY    71  64  77 S5        29.87S
VIROQUA        CLOUDY    69  67  92 S7        29.89S
BOSCOBEL       CLOUDY    72  66  81 S3        29.89S HAZE
PRAIRIE DU CHI CLOUDY    73  65  76 SE3       29.87S
PLATTEVILLE    CLOUDY    69  67  90 S9        29.92S
$$

WIZ056-057-062-063-064-067-068-061100-
SOUTH CENTRAL WISCONSIN

CITY           SKY/WX    TMP DP  RH WIND       PRES   REMARKS
REEDSBURG      CLOUDY    68  65  90 S5        29.91S
BARABOO/DELLS  CLOUDY    67  63  84 S9        29.92S HAZE
LONE ROCK      CLOUDY    72  64  76 S5        29.92R
MINERAL POINT  CLOUDY    68  64  88 SE8       29.93S FOG
MADISON        MOCLDY    70  63  78 S9        29.93R
MIDDLETON      MOCLDY    68  64  85 S7        29.93S
WATERTOWN      PTCLDY    64  64 100 S5        29.94R
MONROE         CLOUDY    66  63  88 S12       29.94F
JANESVILLE     MOCLDY    70  64  83 SW8       29.94S
$$

WIZ051-052-058>065-066-070>072-061100-
SOUTHEAST WISCONSIN

CITY           SKY/WX    TMP DP  RH WIND       PRES   REMARKS
MILWAUKEE      PTCLDY    64  59  83 SE5       29.95F
WAUKESHA       PTCLDY    63  59  88 CALM      29.96S
MILWAUKEE/TIMM PTCLDY    64  59  82 S8        29.95F
RACINE         CLEAR     65  60  84 S6        29.98F
BURLINGTON     PTCLDY    56  55  99 SW3       29.96F FOG
KENOSHA        CLEAR     64  60  87 S7        29.97F FOG
FOND DU LAC    MOCLDY    67  63  87 S9        29.92F
SHEBOYGAN      PTCLDY    62  59  90 W5        29.94F FOG
WEST BEND      PTCLDY    61  57  88 CALM      29.95S
JUNEAU         MOCLDY    65  62  90 S7        29.95S
$$

LSZ147-162-061100-
LAKE SUPERIOR

STATION/POSITION TIME  TEMP    WIND        PRES    WAVE
                       AIR SEA DIR/SP/G            HT/PER
                 (UTC) (F)     (DEG/KT/KT) (MB)    (FT/S)
W MID LAKE BUOY  0950   49 39  250/  4/  6 1008.7F   1/ 4
DEVILS ISLAND    1000   63     230/  9/ 11 1009.4R
PORT WING        1000   67     270/  3/  6 1010.2R
SAXON HARBOR     0900   67      CALM  /  7 1008.8
$$

LMZ867-665-643>646-061100-
LAKE MICHIGAN

STATION/POSITION TIME  TEMP    WIND        PRES    WAVE
                       AIR SEA DIR/SP/G            HT/PER
                 (UTC) (F)     (DEG/KT/KT) (MB)    (FT/S)
CHAMBERS ISLAND  0900   70     170/  6/ 13 1012.5F
N MID LAKE BUOY  0950   57 54  200/ 16/ 19 1013.4S   2/ 4
NORTHPORT PIER   0900   63     140/  5/  9 1012.5F
SISTER BAY       0844   67     160/ 12/ 13   N/A
ALGOMA LAKESHORE 0911          210/ 11/ 12   N/A
KEWAUNEE LAKESHO 1000   60     190/  9/ 12 1012.8F
SHEBOYGAN LAKESH 1000   62     180/ 12/ 12 1013.9F
PORT WASHINGTON  0940   61     200/  4/  6 1014.2F
ATWATER BUOY     1000   63 59  150/ 10/ 10 1015.1F
MILWAUKEE LAKESH 1000   64     170/  6/  6   N/A
KENOSHA   LAKESH 1000   66     180/  6/  7 1014.6F
$$

TC  - TEMPERATURE IN CELSIUS
VSB - VISIBILITY IN STATUTE MILES
WCI - WIND CHILL INDEX
HX  - HEAT INDEX



USA.gov is the U.S. government's official web portal to all federal, state and local government web resources and services.